Date String (YYYY-MM-DD hh:mm:ss) UTC,Instrument flags,absolute air pressure of the measurement (hPa),sample flow rate (lpm),inlet stack bypass flow (lpm),air temperature of the measurement (°C),ambient temperature measured by the external sensor (°C),aerosol sample conditioner tube jacket temperature (°C),OPC LED temperature (°C),internal box temperature (°C),relative humidity of the measurement (%),span deviation,mass concentration of particles derived from Lorenz-Mie calculation of OPC scattering (μg/m³),mass concentration of particles derived from Lorenz-Mie calculation of OPC scattering (μg/m³),mass concentration of particles derived from Lorenz-Mie calculation of OPC scattering (μg/m³)
DateTimeUTC,F1_M11,P_M11,Q1_M11,Q2_M11,T1_M11,T2_M11,T3_M11,T4_M11,T5_M11,U1_M11,ZSPAN_M11,X0_M11,X2_M11,X1_M11
2023-08-28 06:00:00,SystemResetWarning,0836.4,5.00,000.00,029.9,025.0,000.0,038.3,030.0,33.5,0000.8,0007.08,0004.45,0004.13
2023-08-28 06:01:00,SystemResetWarning,0836.4,4.99,000.00,029.8,025.4,000.0,038.3,030.0,33.5,0000.4,0007.24,0004.46,0004.13
2023-08-28 06:02:00,SystemResetWarning,0836.4,5.01,000.00,029.8,025.8,000.0,038.3,030.1,33.8,0000.3,0007.18,0004.45,0004.13
2023-08-28 06:03:00,SystemResetWarning,0836.4,5.00,000.00,029.7,026.1,000.0,038.2,030.1,33.9,0000.3,0007.23,0004.48,0004.14
2023-08-28 06:04:00,SystemResetWarning,0836.3,5.00,000.00,029.7,026.3,000.0,038.2,030.2,34.2,0001.1,0007.38,0004.50,0004.13
2023-08-28 06:05:00,SystemResetWarning,0836.3,5.00,000.00,029.7,026.5,000.0,038.2,030.2,34.4,0000.8,0007.45,0004.52,0004.13
2023-08-28 06:06:00,SystemResetWarning,0836.3,5.00,000.00,029.7,026.7,000.0,038.2,030.2,34.2,0000.1,0007.44,0004.52,0004.13
2023-08-28 06:07:00,SystemResetWarning,0836.3,5.01,000.00,029.6,026.8,000.0,038.2,030.3,33.9,0000.0,0007.49,0004.53,0004.12
2023-08-28 06:08:00,SystemResetWarning,0836.3,4.99,000.00,029.6,026.9,000.0,038.1,030.3,34.4,0000.4,0007.50,0004.53,0004.11
2023-08-28 06:09:00,SystemResetWarning,0836.3,5.00,000.00,029.6,027.1,000.0,038.1,030.3,34.8,0000.7,0007.51,0004.53,0004.11
2023-08-28 06:10:00,SystemResetWarning,0836.4,5.00,000.00,029.6,027.1,000.0,038.1,030.4,34.6,0000.0,0007.50,0004.50,0004.11
2023-08-28 06:11:00,SystemResetWarning,0836.4,5.00,000.00,029.6,027.2,000.0,038.1,030.4,34.6,0000.0,0007.51,0004.51,0004.10
2023-08-28 06:12:00,SystemResetWarning,0836.4,5.00,000.00,029.6,027.3,000.0,038.1,030.4,34.3,0000.0,0007.47,0004.52,0004.10
2023-08-28 06:13:00,SystemResetWarning,0836.4,5.00,000.00,029.6,027.4,000.0,038.1,030.5,33.8,0000.0,0007.51,0004.52,0004.09
2023-08-28 06:14:00,SystemResetWarning,0836.4,5.00,000.00,029.6,027.4,000.0,038.1,030.5,33.7,0000.0,0007.51,0004.50,0004.09
2023-08-28 06:15:00,SystemResetWarning,0836.4,4.99,000.00,029.6,026.9,000.0,038.0,030.5,33.6,0000.0,0007.39,0004.47,0004.09
2023-08-28 06:16:00,SystemResetWarning,0836.3,5.00,000.00,029.5,025.3,000.0,037.8,030.2,33.8,0000.0,0007.32,0004.46,0004.09
2023-08-28 06:17:00,SystemResetWarning,0836.3,5.00,000.00,029.4,024.6,000.0,037.7,030.0,34.2,0000.0,0007.35,0004.46,0004.09
2023-08-28 06:18:00,SystemResetWarning,0836.2,5.00,000.00,029.3,024.6,000.0,037.7,029.7,34.8,0000.0,0007.35,0004.45,0004.09
2023-08-28 06:19:00,SystemResetWarning,0836.2,5.01,000.00,029.2,025.0,000.0,037.7,029.8,35.6,0000.0,0007.24,0004.42,0004.08
2023-08-28 06:20:00,SystemResetWarning,0836.2,5.01,000.00,029.4,025.4,000.0,037.7,030.0,35.3,0000.0,0007.25,0004.42,0004.07
2023-08-28 06:21:00,SystemResetWarning,0836.3,5.01,000.00,029.7,025.7,000.0,037.7,030.2,35.0,0000.0,0007.09,0004.42,0004.07
2023-08-28 06:22:00,SystemResetWarning,0836.3,4.97,000.00,029.9,026.0,000.0,037.7,030.3,34.7,0000.0,0006.94,0004.41,0004.07
2023-08-28 06:23:00,SystemResetWarning,0836.4,5.01,000.00,030.1,026.3,000.0,037.8,030.4,34.3,0000.0,0006.77,0004.40,0004.06
2023-08-28 06:24:00,SystemResetWarning,0836.4,5.01,000.00,030.2,026.6,000.0,037.8,030.4,34.0,0000.0,0006.59,0004.37,0004.06
2023-08-28 06:25:00,SystemResetWarning,0836.4,5.01,000.00,030.2,026.7,000.0,037.9,030.4,34.0,0000.0,0006.55,0004.35,0004.05
2023-08-28 06:26:00,SystemResetWarning,0836.4,4.99,000.00,030.3,026.9,000.0,038.0,030.4,34.0,0000.0,0006.65,0004.36,0004.05
2023-08-28 06:27:00,SystemResetWarning,0836.4,5.00,000.00,030.3,027.0,000.0,038.1,030.5,34.2,0000.0,0006.69,0004.35,0004.04
2023-08-28 06:28:00,SystemResetWarning,0836.4,5.00,000.00,030.3,027.1,000.0,038.1,030.5,34.7,0000.0,0006.86,0004.36,0004.04
2023-08-28 06:29:00,SystemResetWarning,0836.4,5.00,000.00,030.3,027.2,000.0,038.2,030.5,34.7,0000.0,0006.91,0004.37,0004.04
2023-08-28 06:30:00,SystemResetWarning,0836.4,5.00,000.00,030.3,027.3,000.0,038.2,030.6,34.7,0000.0,0007.12,0004.40,0004.05
2023-08-28 06:31:00,SystemResetWarning,0836.4,5.00,000.00,030.3,027.4,000.0,038.3,030.6,34.7,0000.0,0007.17,0004.40,0004.05
2023-08-28 06:32:00,SystemResetWarning,0836.3,5.01,000.00,030.3,027.5,000.0,038.3,030.6,34.6,0000.0,0007.21,0004.39,0004.04
2023-08-28 06:33:00,SystemResetWarning,0836.3,4.99,000.00,030.3,027.1,000.0,038.3,030.6,34.4,0000.0,0007.28,0004.42,0004.05
2023-08-28 06:34:00,SystemResetWarning,0836.3,4.98,000.00,030.3,025.4,000.0,038.2,030.4,34.5,0000.0,0007.35,0004.41,0004.04
2023-08-28 06:35:00,SystemResetWarning,0836.2,5.02,000.00,030.2,024.6,000.0,038.1,030.2,34.4,0000.0,0007.46,0004.42,0004.04
2023-08-28 06:36:00,SystemResetWarning,0836.2,5.01,000.00,030.0,024.6,000.0,038.1,029.9,34.2,0000.0,0007.44,0004.43,0004.04
2023-08-28 06:37:00,SystemResetWarning,0836.2,5.00,000.00,029.8,024.9,000.0,038.1,029.9,34.4,0000.0,0007.40,0004.42,0004.04
2023-08-28 06:38:00,SystemResetWarning,0836.3,5.00,000.00,029.8,025.3,000.0,038.1,030.0,34.3,0000.0,0007.46,0004.42,0004.04
2023-08-28 06:39:00,SystemResetWarning,0836.2,5.00,000.00,029.7,025.7,000.0,038.1,030.1,34.3,0000.0,0007.38,0004.41,0004.04
2023-08-28 06:40:00,SystemResetWarning,0836.3,5.00,000.00,029.7,026.0,000.0,038.1,030.1,34.3,0000.0,0007.29,0004.39,0004.03
2023-08-28 06:41:00,SystemResetWarning,0836.3,5.00,000.00,029.6,026.3,000.0,038.1,030.2,34.4,0000.0,0007.09,0004.34,0004.02
2023-08-28 06:42:00,SystemResetWarning,0836.2,4.99,000.00,029.6,026.5,000.0,038.1,030.2,34.6,0000.0,0006.89,0004.31,0004.01
2023-08-28 06:43:00,SystemResetWarning,0836.3,4.99,000.00,029.6,026.7,000.0,038.1,030.3,34.2,0000.0,0006.86,0004.30,0004.01
2023-08-28 06:44:00,SystemResetWarning,0836.3,5.00,000.00,029.6,026.9,000.0,038.1,030.3,33.9,0000.0,0006.70,0004.25,0004.00
2023-08-28 06:45:00,SystemResetWarning,0836.4,5.01,000.00,029.6,027.0,000.0,038.0,030.3,34.0,0000.0,0006.44,0004.22,0004.00
2023-08-28 06:46:00,SystemResetWarning,0836.4,5.01,000.00,029.6,027.1,000.0,038.0,030.3,34.2,0000.0,0006.24,0004.20,0004.00
2023-08-28 06:47:00,SystemResetWarning,0836.3,4.99,000.00,029.6,027.2,000.0,038.0,030.4,34.9,0000.0,0006.14,0004.18,0004.00
2023-08-28 06:48:00,SystemResetWarning,0836.4,5.01,000.00,029.6,027.3,000.0,038.0,030.5,35.3,0000.0,0006.13,0004.19,0004.01
2023-08-28 06:49:00,SystemResetWarning,0836.4,5.00,000.00,029.8,027.4,000.0,038.0,030.6,34.3,0000.0,0005.93,0004.18,0004.01
2023-08-28 06:50:00,SystemResetWarning,0836.4,4.99,000.00,030.0,027.5,000.0,038.0,030.7,33.6,0000.0,0005.90,0004.17,0004.01
2023-08-28 06:51:00,SystemResetWarning,0836.4,5.01,000.00,030.1,027.5,000.0,038.1,030.7,33.6,0000.0,0005.91,0004.17,0004.01
2023-08-28 06:52:00,SystemResetWarning,0836.4,4.98,000.00,030.1,026.7,000.0,038.0,030.6,33.5,0000.0,0006.00,0004.20,0004.02
2023-08-28 06:53:00,SystemResetWarning,0836.4,5.01,000.00,030.1,025.1,000.0,037.9,030.4,33.5,0000.0,0006.22,0004.22,0004.03
2023-08-28 06:54:00,SystemResetWarning,0836.4,5.02,000.00,030.1,024.6,000.0,037.8,030.2,33.6,0000.0,0006.65,0004.22,0004.02
2023-08-28 06:55:00,SystemResetWarning,0836.4,5.01,000.00,029.9,024.8,000.0,037.9,030.0,33.9,0000.0,0006.53,0004.20,0004.01
2023-08-28 06:56:00,SystemResetWarning,0836.4,4.99,000.00,029.8,025.1,000.0,037.9,030.0,33.8,0000.0,0006.63,0004.20,0004.00
2023-08-28 06:57:00,SystemResetWarning,0836.4,5.00,000.00,029.7,025.5,000.0,038.0,030.1,34.0,0000.0,0006.85,0004.21,0003.99
2023-08-28 06:58:00,SystemResetWarning,0836.4,5.01,000.00,029.7,025.9,000.0,038.0,030.1,34.5,0000.0,0007.21,0004.23,0003.99
2023-08-28 06:59:00,SystemResetWarning,0836.4,4.97,000.00,029.7,026.2,000.0,038.0,030.2,35.3,0000.0,0007.25,0004.22,0003.99
